Flag for New Zealand Weather past 2 weeks in Christchurch, New Zealand

Now
36 °F

Chilly.


Feels Like: 32 °F
Forecast: 30 / 53 °F
Wind: 5 mph from Northeast

Location: Christchurch Airport

Current Time: Jul 30, 2015 at 11:14:37 PM

Latest Report: Jul 30, 2015 at 10:30 PM


Visibility: N/A

Pressure: 30.15 "Hg

Humidity: 93%

Dew point: 34 °F

Location of ChristchurchLocation

Historic Weather in Christchurch — Graph

°F

Christchurch temperature yesterday

Maximum temperature yesterday: 52 °F (at 12:30 PM)
Minimum temperature yesterday: 37 °F (at 7:30 AM)
Average temperature yesterday: 44 °F

Past Weeks' High & Low Weather Summary

 TemperatureHumidityPressure
High68 °F (Jul 26, 2:30 PM)100% (Jul 16, 7:00 PM)30.60 "Hg (Jul 16, 7:00 PM)
Low27 °F (Jul 20, 8:00 AM)34% (Jul 26, 5:00 PM)29.30 "Hg (Jul 18, 1:00 PM)
Average45 °F76%29.99 "Hg
* Reported Jul 15 10:00 PM — Jul 30 10:00 PM, Christchurch, Weather by CustomWeather, © 2015

Note: Actual official high and low records may vary slightly from our data, if they occured in-between our weather recording intervals... More about our weather records

Advertising

Christchurch weather history for previous 24 hours

 ConditionsComfort  
Time TempWeatherWind HumidityBarometerVisibility
10:00 PM
Thu, Jul 30
36 °FChilly.5 mph93%30.15 "HgN/A
9:30 PM36 °FChilly.5 mph87%30.15 "HgN/A
9:00 PM36 °FChilly.5 mph93%30.18 "HgN/A
8:30 PM37 °FChilly.6 mph87%30.18 "HgN/A
8:00 PM36 °FChilly.7 mph87%30.18 "HgN/A
7:30 PM37 °FChilly.5 mph87%30.18 "HgN/A
7:00 PM37 °FChilly.5 mph81%30.18 "HgN/A
6:30 PM37 °FChilly.3 mph87%30.18 "HgN/A
6:00 PM37 °FChilly.6 mph87%30.18 "HgN/A
5:30 PM41 °FQuite cool.8 mph76%30.18 "HgN/A
5:00 PM45 °FQuite cool.10 mph66%30.18 "HgN/A
4:30 PM46 °FCool.12 mph62%30.15 "HgN/A
4:00 PM46 °FCool.9 mph57%30.18 "HgN/A
3:30 PM48 °FCool.8 mph54%30.15 "HgN/A
3:00 PM50 °FCool.7 mph50%30.15 "HgN/A
2:30 PM50 °FCool.7 mph50%30.15 "HgN/A
2:00 PM50 °FCool.6 mph50%30.18 "HgN/A
1:30 PM50 °FCool.6 mph50%30.18 "HgN/A
1:00 PM48 °FCool.5 mph54%30.18 "HgN/A
12:30 PM48 °FCool.5 mph54%30.21 "HgN/A
12:00 PM48 °FCool.3 mph58%30.21 "HgN/A
11:30 AM46 °FCool.2 mph57%30.24 "HgN/A
11:00 AM45 °FQuite cool.1 mph57%30.24 "HgN/A
10:30 AM43 °FQuite cool.1 mph66%30.24 "HgN/A
9:30 AM37 °FChilly.No wind75%30.27 "HgN/A
9:00 AM34 °FChilly.No wind81%30.24 "HgN/A
8:30 AM30 °FChilly.2 mph86%30.24 "HgN/A
8:00 AM28 °FChilly.2 mph93%30.24 "HgN/A
7:30 AM28 °FChilly.2 mph93%30.24 "HgN/A
7:00 AM30 °FChilly.2 mph86%30.24 "HgN/A
6:30 AM30 °FChilly.2 mph86%30.24 "HgN/A
6:00 AM30 °FChilly.1 mph86%30.24 "HgN/A
5:30 AM34 °FChilly.7 mph81%30.21 "HgN/A
5:00 AM34 °FChilly.7 mph81%30.21 "HgN/A
4:30 AM34 °FChilly.6 mph81%30.21 "HgN/A
4:00 AM36 °FPassing clouds.8 mph75%30.21 "HgN/A
3:30 AM36 °FPassing clouds.7 mph75%30.24 "HgN/A
3:00 AM36 °FPassing clouds.3 mph75%30.24 "HgN/A
2:30 AM36 °FChilly.6 mph81%30.24 "HgN/A
2:00 AM37 °FChilly.6 mph75%30.24 "HgN/A
1:30 AM37 °FChilly.7 mph75%30.24 "HgN/A
1:00 AM37 °FChilly.6 mph81%30.24 "HgN/A
12:30 AM39 °FChilly.6 mph81%30.24 "HgN/A
12:00 AM39 °FPassing clouds.8 mph81%30.24 "HgN/A
11:30 PM
Wed, Jul 29
39 °FPassing clouds.8 mph81%30.24 "HgN/A
11:00 PM41 °FPassing clouds.8 mph76%30.24 "HgN/A
Weather by CustomWeather, © 2015

See weather overviewHow to use our weather pages